VOZ485 YSSY-YBSU

Flight info

Callsign VOZ485
Flight time 1h 23m
Altitude 37000
Route TESAT H252 OLSEM Y193 BANDA H252 GOMOL Q69 SU
Aircraft B738/M-SDE2E3FGHIRWXY/LB1

Departure

Time 2026-05-07 05:43
Airport Sydney Kingsford Smith International Airport (YSSY)

Arrival

Time 2026-05-07 07:07
Airport Sunshine Coast Airport (YBSU)
Time Latitude Longitude Altitude Speed Heading
2026-05-07 05:07 -33.93556 151.17990 29 ft 0 kts 280°
2026-05-07 05:34 -33.93557 151.18002 29 ft 4 kts 279°
2026-05-07 05:35 -33.93560 151.18034 29 ft 4 kts 265°
2026-05-07 05:35 -33.93553 151.18061 29 ft 4 kts 212°
2026-05-07 05:35 -33.93546 151.18065 29 ft 1 kts 190°
2026-05-07 05:38 -33.93551 151.18064 29 ft 5 kts 190°
2026-05-07 05:38 -33.93610 151.18053 29 ft 12 kts 185°
2026-05-07 05:38 -33.93697 151.18055 29 ft 13 kts 169°
2026-05-07 05:39 -33.93755 151.18124 29 ft 13 kts 86°
2026-05-07 05:39 -33.93732 151.18229 29 ft 14 kts 74°
2026-05-07 05:39 -33.93702 151.18358 29 ft 19 kts 74°
2026-05-07 05:39 -33.93663 151.18521 29 ft 21 kts 74°
2026-05-07 05:40 -33.93626 151.18678 29 ft 13 kts 73°
2026-05-07 05:40 -33.93612 151.18759 29 ft 8 kts 95°
2026-05-07 05:40 -33.93627 151.18792 29 ft 3 kts 136°
2026-05-07 05:40 -33.93642 151.18802 29 ft 3 kts 158°
2026-05-07 05:41 -33.93663 151.18810 28 ft 3 kts 163°
2026-05-07 05:41 -33.93690 151.18819 32 ft 5 kts 163°
2026-05-07 05:41 -33.93743 151.18833 30 ft 11 kts 179°
2026-05-07 05:41 -33.93797 151.18793 27 ft 8 kts 243°
2026-05-07 05:42 -33.93810 151.18748 26 ft 0 kts 253°
2026-05-07 05:43 -33.93871 151.18489 28 ft 70 kts 254°
2026-05-07 05:43 -33.94073 151.17643 31 ft 137 kts 253°
2026-05-07 05:43 -33.94377 151.16405 457 ft 165 kts 251°
2026-05-07 05:43 -33.94745 151.14963 934 ft 191 kts 252°
2026-05-07 05:44 -33.95136 151.13400 1604 ft 195 kts 253°
2026-05-07 05:44 -33.95486 151.11830 2320 ft 201 kts 255°
2026-05-07 05:44 -33.95887 151.10174 2847 ft 212 kts 245°
2026-05-07 05:44 -33.96901 151.08874 3596 ft 218 kts 211°
2026-05-07 05:45 -33.98386 151.08352 4368 ft 227 kts 194°
2026-05-07 05:45 -33.99943 151.08075 5205 ft 225 kts 193°
2026-05-07 05:45 -34.01503 151.07808 5954 ft 231 kts 192°
2026-05-07 05:45 -34.03173 151.07550 6463 ft 250 kts 186°
2026-05-07 05:46 -34.04916 151.07962 7246 ft 266 kts 159°
2026-05-07 05:46 -34.06362 151.09371 8131 ft 281 kts 132°
2026-05-07 05:46 -34.07209 151.11543 8987 ft 296 kts 106°
2026-05-07 05:46 -34.07224 151.14060 9837 ft 309 kts 81°
2026-05-07 05:47 -34.06381 151.16481 10491 ft 323 kts 59°
2026-05-07 05:47 -34.05043 151.18791 10706 ft 349 kts 54°
2026-05-07 05:47 -34.03542 151.21200 10996 ft 369 kts 53°
2026-05-07 05:47 -34.01971 151.23697 11605 ft 377 kts 53°
2026-05-07 05:48 -34.00360 151.26217 12374 ft 381 kts 49°
2026-05-07 05:48 -33.98538 151.28545 13160 ft 384 kts 44°
2026-05-07 05:48 -33.96623 151.30813 13915 ft 388 kts 43°
2026-05-07 05:48 -33.94680 151.33091 14604 ft 392 kts 43°
2026-05-07 05:49 -33.92666 151.35318 15292 ft 395 kts 39°
2026-05-07 05:49 -33.90546 151.37432 15987 ft 397 kts 35°
2026-05-07 05:49 -33.88333 151.39443 16667 ft 400 kts 33°
2026-05-07 05:49 -33.86077 151.41429 17358 ft 404 kts 33°
2026-05-07 05:50 -33.83799 151.43431 18026 ft 407 kts 32°
2026-05-07 05:50 -33.81508 151.45461 18635 ft 411 kts 32°
2026-05-07 05:50 -33.79205 151.47521 19215 ft 414 kts 32°
2026-05-07 05:50 -33.76891 151.49602 19808 ft 417 kts 31°
2026-05-07 05:51 -33.74565 151.51699 20368 ft 420 kts 31°
2026-05-07 05:51 -33.72222 151.53814 20929 ft 422 kts 30°
2026-05-07 05:51 -33.69865 151.55938 21494 ft 425 kts 30°
2026-05-07 05:51 -33.67492 151.58075 22060 ft 427 kts 29°
2026-05-07 05:52 -33.65107 151.60218 22599 ft 430 kts 28°
2026-05-07 05:52 -33.62662 151.62284 23126 ft 429 kts 25°
2026-05-07 05:52 -33.60165 151.64247 23649 ft 430 kts 23°
2026-05-07 05:52 -33.57639 151.66196 24072 ft 433 kts 23°
2026-05-07 05:53 -33.55103 151.68169 24466 ft 436 kts 24°
2026-05-07 05:53 -33.52559 151.70171 24853 ft 439 kts 24°
2026-05-07 05:53 -33.49960 151.72059 25244 ft 433 kts 17°
2026-05-07 05:53 -33.47213 151.73436 25641 ft 422 kts
2026-05-07 05:54 -33.44390 151.74318 26039 ft 419 kts
2026-05-07 05:54 -33.41584 151.75140 26403 ft 422 kts
2026-05-07 05:54 -33.38690 151.76021 26766 ft 425 kts
2026-05-07 05:54 -33.35857 151.76913 27118 ft 428 kts
2026-05-07 05:55 -33.32975 151.77839 27467 ft 430 kts
2026-05-07 05:55 -33.30078 151.78776 27815 ft 432 kts
2026-05-07 05:55 -33.27169 151.79720 28171 ft 434 kts
2026-05-07 05:55 -33.24252 151.80666 28531 ft 435 kts
2026-05-07 05:56 -33.21324 151.81614 28851 ft 437 kts
2026-05-07 05:56 -33.18380 151.82564 29156 ft 439 kts
2026-05-07 05:56 -33.15422 151.83517 29470 ft 441 kts
2026-05-07 05:56 -33.12457 151.84472 29795 ft 442 kts
2026-05-07 05:57 -33.09482 151.85429 30087 ft 444 kts
2026-05-07 05:57 -33.06494 151.86389 30350 ft 445 kts
2026-05-07 05:57 -33.03500 151.87351 30620 ft 446 kts
2026-05-07 05:57 -33.00503 151.88313 30901 ft 446 kts
2026-05-07 05:58 -32.97506 151.89275 31181 ft 447 kts
2026-05-07 05:58 -32.94498 151.90240 31442 ft 448 kts
2026-05-07 05:58 -32.91492 151.91202 31721 ft 448 kts
2026-05-07 05:58 -32.88483 151.92166 32027 ft 448 kts
2026-05-07 05:59 -32.85474 151.93129 32310 ft 448 kts
2026-05-07 05:59 -32.82466 151.94090 32575 ft 448 kts
2026-05-07 05:59 -32.79459 151.95051 32880 ft 447 kts
2026-05-07 05:59 -32.76454 151.96011 33222 ft 446 kts
2026-05-07 06:00 -32.73462 151.96967 33559 ft 445 kts
2026-05-07 06:00 -32.70478 151.97920 33884 ft 443 kts
2026-05-07 06:00 -32.67506 151.98867 34185 ft 442 kts
2026-05-07 06:00 -32.64539 151.99812 34449 ft 441 kts
2026-05-07 06:01 -32.61575 152.00754 34661 ft 441 kts
2026-05-07 06:01 -32.58608 152.01694 34847 ft 442 kts
2026-05-07 06:01 -32.55638 152.02635 35069 ft 442 kts
2026-05-07 06:01 -32.52668 152.03576 35297 ft 442 kts
2026-05-07 06:02 -32.49691 152.04519 35476 ft 443 kts
2026-05-07 06:02 -32.46718 152.05461 35689 ft 443 kts
2026-05-07 06:02 -32.43743 152.06404 35896 ft 442 kts
2026-05-07 06:02 -32.41779 152.07026 36013 ft 442 kts
2026-05-07 06:03 -32.38809 152.07966 36199 ft 442 kts
2026-05-07 06:03 -32.35833 152.08907 36397 ft 442 kts
2026-05-07 06:03 -32.32860 152.09846 36601 ft 442 kts
2026-05-07 06:03 -32.29888 152.10784 36804 ft 442 kts
2026-05-07 06:04 -32.26916 152.11722 37005 ft 442 kts
2026-05-07 06:04 -32.20984 152.13592 37023 ft 441 kts
2026-05-07 06:05 -32.15064 152.15456 37021 ft 439 kts
2026-05-07 06:05 -32.09175 152.17308 37032 ft 437 kts
2026-05-07 06:06 -32.03304 152.19151 37025 ft 435 kts
2026-05-07 06:06 -31.97459 152.20983 37034 ft 434 kts
2026-05-07 06:07 -31.91626 152.22808 37020 ft 433 kts
2026-05-07 06:07 -31.85849 152.24614 37019 ft 432 kts
2026-05-07 06:08 -31.80051 152.26424 37029 ft 431 kts
2026-05-07 06:08 -31.74256 152.28230 37019 ft 430 kts
2026-05-07 06:09 -31.68468 152.30031 37020 ft 431 kts
2026-05-07 06:09 -31.62671 152.31833 36993 ft 430 kts
2026-05-07 06:10 -31.56885 152.33631 37015 ft 430 kts
2026-05-07 06:10 -31.51091 152.35427 37001 ft 431 kts
2026-05-07 06:11 -31.45294 152.37223 37016 ft 431 kts
2026-05-07 06:11 -31.39494 152.39018 37011 ft 432 kts
2026-05-07 06:12 -31.33676 152.40815 37017 ft 433 kts
2026-05-07 06:12 -31.27837 152.42617 37025 ft 434 kts
2026-05-07 06:13 -31.22002 152.44417 37013 ft 433 kts
2026-05-07 06:13 -31.16168 152.46214 37003 ft 434 kts
2026-05-07 06:14 -31.10349 152.48005 36998 ft 431 kts
2026-05-07 06:14 -31.04571 152.49781 37002 ft 429 kts
2026-05-07 06:15 -30.98852 152.51534 37002 ft 427 kts
2026-05-07 06:15 -30.93113 152.53291 37012 ft 426 kts
2026-05-07 06:16 -30.87390 152.55042 37004 ft 424 kts
2026-05-07 06:16 -30.81683 152.56785 37004 ft 424 kts
2026-05-07 06:17 -30.75972 152.58652 37009 ft 429 kts
2026-05-07 06:17 -30.70272 152.60768 37026 ft 430 kts
2026-05-07 06:18 -30.64529 152.62898 37009 ft 436 kts
2026-05-07 06:18 -30.58741 152.65013 36969 ft 436 kts
2026-05-07 06:19 -30.52967 152.67114 37005 ft 436 kts
2026-05-07 06:19 -30.47160 152.69215 37011 ft 438 kts
2026-05-07 06:20 -30.41332 152.71321 37004 ft 439 kts
2026-05-07 06:20 -30.35557 152.73412 37009 ft 435 kts
2026-05-07 06:21 -30.29899 152.75456 37007 ft 432 kts
2026-05-07 06:21 -30.24158 152.77521 36997 ft 432 kts
2026-05-07 06:22 -30.18423 152.79582 36993 ft 432 kts
2026-05-07 06:22 -30.09820 152.82671 36998 ft 432 kts
2026-05-07 06:23 -30.04090 152.84726 36991 ft 431 kts
2026-05-07 06:23 -29.98366 152.86778 36994 ft 431 kts
2026-05-07 06:24 -29.92628 152.88830 36995 ft 432 kts
2026-05-07 06:24 -29.86869 152.90879 36984 ft 434 kts
2026-05-07 06:25 -29.81092 152.92924 36989 ft 435 kts
2026-05-07 06:25 -29.75306 152.94972 36979 ft 435 kts
2026-05-07 06:26 -29.69511 152.97023 36987 ft 436 kts
2026-05-07 06:26 -29.63709 152.99075 36980 ft 436 kts
2026-05-07 06:27 -29.57905 153.01125 36977 ft 436 kts
2026-05-07 06:27 -29.52107 153.03170 36988 ft 436 kts
2026-05-07 06:28 -29.46356 153.05196 36985 ft 435 kts
2026-05-07 06:28 -29.40575 153.07229 36989 ft 434 kts
2026-05-07 06:29 -29.34805 153.09257 37000 ft 433 kts
2026-05-07 06:29 -29.29039 153.11280 36990 ft 433 kts
2026-05-07 06:30 -29.23278 153.13306 36987 ft 433 kts
2026-05-07 06:30 -29.17528 153.15332 36987 ft 432 kts
2026-05-07 06:31 -29.11778 153.17355 36991 ft 432 kts
2026-05-07 06:31 -29.06035 153.19373 36992 ft 432 kts
2026-05-07 06:32 -29.00282 153.21392 36991 ft 432 kts
2026-05-07 06:32 -28.94529 153.23408 36996 ft 433 kts
2026-05-07 06:33 -28.88769 153.25424 37003 ft 434 kts
2026-05-07 06:33 -28.82994 153.27443 36995 ft 434 kts
2026-05-07 06:34 -28.77209 153.29465 36987 ft 435 kts
2026-05-07 06:34 -28.71432 153.31482 36998 ft 434 kts
2026-05-07 06:35 -28.65649 153.33497 36990 ft 435 kts
2026-05-07 06:35 -28.59860 153.35512 36963 ft 435 kts
2026-05-07 06:36 -28.54092 153.37518 37032 ft 432 kts
2026-05-07 06:36 -28.48324 153.39521 36997 ft 434 kts
2026-05-07 06:37 -28.42559 153.41522 37005 ft 433 kts
2026-05-07 06:37 -28.36775 153.43526 36989 ft 435 kts
2026-05-07 06:38 -28.30974 153.45534 36972 ft 436 kts
2026-05-07 06:38 -28.25201 153.47532 36961 ft 437 kts
2026-05-07 06:39 -28.19382 153.49538 36961 ft 436 kts
2026-05-07 06:39 -28.16474 153.50258 36962 ft 420 kts 353°
2026-05-07 06:39 -28.13625 153.50468 36962 ft 403 kts 345°
2026-05-07 06:40 -28.08024 153.50359 36962 ft 403 kts 345°
2026-05-07 06:40 -28.02416 153.50255 36970 ft 403 kts 345°
2026-05-07 06:41 -27.96800 153.50178 36977 ft 404 kts 345°
2026-05-07 06:41 -27.91160 153.50112 36657 ft 410 kts 345°
2026-05-07 06:42 -27.88307 153.50079 36203 ft 409 kts 345°
2026-05-07 06:42 -27.85471 153.50051 35654 ft 407 kts 346°
2026-05-07 06:42 -27.82638 153.50023 35048 ft 407 kts 346°
2026-05-07 06:42 -27.79808 153.49993 34447 ft 407 kts 346°
2026-05-07 06:43 -27.76970 153.49961 33766 ft 408 kts 346°
2026-05-07 06:43 -27.74126 153.49929 33067 ft 409 kts 346°
2026-05-07 06:43 -27.71285 153.49898 32381 ft 409 kts 347°
2026-05-07 06:43 -27.68441 153.49868 31702 ft 409 kts 347°
2026-05-07 06:44 -27.65596 153.49837 31021 ft 409 kts 347°
2026-05-07 06:44 -27.62746 153.49806 30329 ft 410 kts 348°
2026-05-07 06:44 -27.59890 153.49774 29539 ft 411 kts 348°
2026-05-07 06:44 -27.57044 153.49744 28826 ft 409 kts 348°
2026-05-07 06:45 -27.54218 153.49718 28284 ft 404 kts 348°
2026-05-07 06:45 -27.51421 153.49691 27636 ft 401 kts 349°
2026-05-07 06:45 -27.48636 153.49670 27042 ft 398 kts 349°
2026-05-07 06:45 -27.45877 153.49654 26486 ft 395 kts 349°
2026-05-07 06:46 -27.43140 153.49637 25950 ft 392 kts 349°
2026-05-07 06:46 -27.40425 153.49620 25433 ft 388 kts 349°
2026-05-07 06:46 -27.37733 153.49601 24927 ft 385 kts 349°
2026-05-07 06:46 -27.35060 153.49582 24407 ft 383 kts 350°
2026-05-07 06:47 -27.32397 153.49563 23897 ft 382 kts 350°
2026-05-07 06:47 -27.29764 153.49543 23347 ft 380 kts 350°
2026-05-07 06:47 -27.27114 153.49525 22781 ft 378 kts 350°
2026-05-07 06:47 -27.24492 153.49507 22267 ft 376 kts 350°
2026-05-07 06:48 -27.21872 153.49484 21532 ft 379 kts 350°
2026-05-07 06:48 -27.19227 153.49450 20957 ft 383 kts 351°
2026-05-07 06:48 -27.16545 153.49412 20419 ft 388 kts 351°
2026-05-07 06:48 -27.13841 153.49378 19899 ft 387 kts 351°
2026-05-07 06:49 -27.11158 153.49348 19381 ft 384 kts 352°
2026-05-07 06:49 -27.08495 153.49319 18870 ft 381 kts 352°
2026-05-07 06:49 -27.05851 153.49288 18359 ft 379 kts 352°
2026-05-07 06:49 -27.03219 153.49257 17790 ft 377 kts 352°
2026-05-07 06:50 -27.00608 153.49226 17268 ft 374 kts 353°
2026-05-07 06:50 -26.98022 153.49195 16763 ft 370 kts 353°
2026-05-07 06:50 -26.95452 153.49164 16262 ft 368 kts 353°
2026-05-07 06:50 -26.93761 153.49144 15928 ft 366 kts 353°
2026-05-07 06:51 -26.90371 153.49103 15279 ft 363 kts 354°
2026-05-07 06:51 -26.88696 153.49086 14830 ft 365 kts 354°
2026-05-07 06:51 -26.86153 153.49068 14259 ft 366 kts 355°
2026-05-07 06:51 -26.83607 153.49053 13728 ft 365 kts 355°
2026-05-07 06:52 -26.81070 153.49040 13192 ft 363 kts 355°
2026-05-07 06:52 -26.78557 153.49025 12697 ft 360 kts 356°
2026-05-07 06:52 -26.75261 153.48998 12073 ft 355 kts 354°
2026-05-07 06:52 -26.72884 153.48472 11586 ft 345 kts 334°
2026-05-07 06:53 -26.71456 153.47653 11285 ft 340 kts 326°
2026-05-07 06:53 -26.69461 153.46264 10937 ft 333 kts 324°
2026-05-07 06:53 -26.67551 153.44884 10782 ft 322 kts 324°
2026-05-07 06:53 -26.65703 153.43546 10632 ft 311 kts 324°
2026-05-07 06:54 -26.63935 153.42274 10494 ft 301 kts 324°
2026-05-07 06:54 -26.62177 153.41019 10357 ft 289 kts 324°
2026-05-07 06:54 -26.60529 153.39851 10230 ft 273 kts 324°
2026-05-07 06:54 -26.58971 153.38748 10127 ft 265 kts 324°
2026-05-07 06:55 -26.57435 153.37663 10019 ft 257 kts 324°
2026-05-07 06:55 -26.55928 153.36598 9774 ft 256 kts 324°
2026-05-07 06:55 -26.54429 153.35540 9509 ft 254 kts 324°
2026-05-07 06:55 -26.52940 153.34490 9240 ft 252 kts 324°
2026-05-07 06:56 -26.51460 153.33447 8972 ft 251 kts 324°
2026-05-07 06:56 -26.49974 153.32401 8709 ft 255 kts 325°
2026-05-07 06:56 -26.48453 153.31331 8445 ft 262 kts 325°
2026-05-07 06:56 -26.46894 153.30235 8176 ft 268 kts 325°
2026-05-07 06:57 -26.45378 153.29038 7902 ft 265 kts 315°
2026-05-07 06:57 -26.44086 153.27594 7680 ft 262 kts 311°
2026-05-07 06:57 -26.42850 153.26097 7471 ft 263 kts 310°
2026-05-07 06:57 -26.41607 153.24597 7257 ft 264 kts 311°
2026-05-07 06:58 -26.40347 153.23105 7041 ft 264 kts 311°
2026-05-07 06:58 -26.39079 153.21622 6828 ft 264 kts 312°
2026-05-07 06:58 -26.37805 153.20142 6609 ft 265 kts 312°
2026-05-07 06:58 -26.36529 153.18663 6392 ft 265 kts 312°
2026-05-07 06:59 -26.35489 153.17004 6148 ft 261 kts 290°
2026-05-07 06:59 -26.35065 153.15058 5949 ft 258 kts 277°
2026-05-07 06:59 -26.34839 153.13080 5735 ft 257 kts 276°
2026-05-07 06:59 -26.34625 153.11107 5523 ft 256 kts 276°
2026-05-07 07:00 -26.34399 153.09142 5306 ft 255 kts 276°
2026-05-07 07:00 -26.34166 153.07180 5102 ft 254 kts 276°
2026-05-07 07:00 -26.34263 153.05246 4876 ft 249 kts 252°
2026-05-07 07:00 -26.35015 153.03557 4676 ft 239 kts 236°
2026-05-07 07:01 -26.35963 153.02087 4475 ft 229 kts 233°
2026-05-07 07:01 -26.36898 153.00697 4282 ft 219 kts 232°
2026-05-07 07:01 -26.38025 152.99634 4130 ft 208 kts 209°
2026-05-07 07:01 -26.39319 152.98947 3953 ft 204 kts 206°
2026-05-07 07:02 -26.40591 152.98323 3776 ft 196 kts 206°
2026-05-07 07:02 -26.41815 152.97721 3598 ft 188 kts 206°
2026-05-07 07:02 -26.42985 152.97141 3448 ft 181 kts 207°
2026-05-07 07:02 -26.44138 152.96624 3311 ft 183 kts 194°
2026-05-07 07:03 -26.45405 152.96883 3158 ft 189 kts 158°
2026-05-07 07:03 -26.46569 152.97608 2884 ft 194 kts 154°
2026-05-07 07:03 -26.47686 152.98397 2633 ft 191 kts 150°
2026-05-07 07:03 -26.48757 152.99258 2380 ft 187 kts 147°
2026-05-07 07:04 -26.49763 153.00108 2141 ft 175 kts 147°
2026-05-07 07:04 -26.50701 153.00913 1905 ft 165 kts 147°
2026-05-07 07:04 -26.51575 153.01661 1692 ft 154 kts 147°
2026-05-07 07:04 -26.52407 153.02376 1495 ft 151 kts 147°
2026-05-07 07:05 -26.53256 153.03102 1298 ft 156 kts 147°
2026-05-07 07:05 -26.54101 153.03829 1088 ft 150 kts 145°
2026-05-07 07:05 -26.54906 153.04519 899 ft 142 kts 144°
2026-05-07 07:05 -26.55675 153.05180 743 ft 142 kts 142°
2026-05-07 07:06 -26.56467 153.05861 534 ft 144 kts 141°
2026-05-07 07:06 -26.57255 153.06545 378 ft 141 kts 141°
2026-05-07 07:06 -26.58028 153.07225 167 ft 141 kts 144°
2026-05-07 07:06 -26.58782 153.07859 28 ft 129 kts 144°
2026-05-07 07:07 -26.59413 153.08396 21 ft 97 kts 142°
2026-05-07 07:07 -26.59848 153.08765 26 ft 56 kts 142°
2026-05-07 07:07 -26.60037 153.08926 23 ft 27 kts 143°
2026-05-07 07:07 -26.60179 153.09047 22 ft 25 kts 142°
2026-05-07 07:08 -26.60295 153.09145 22 ft 14 kts 143°
2026-05-07 07:08 -26.60377 153.09173 22 ft 13 kts 192°
2026-05-07 07:08 -26.60461 153.09150 25 ft 12 kts 198°
2026-05-07 07:08 -26.60507 153.09101 25 ft 7 kts 233°
2026-05-07 07:09 -26.60526 153.09057 24 ft 6 kts 262°
2026-05-07 07:09 -26.60517 153.09013 25 ft 5 kts 277°
2026-05-07 07:09 -26.60521 153.08989 23 ft 3 kts 253°
2026-05-07 07:09 -26.60526 153.08970 23 ft 3 kts 257°
2026-05-07 07:10 -26.60528 153.08958 23 ft 1 kts 257°